Change the Weather History Date:

Monday, April 14, 2014

  Actual Average Record
Temperature  
Mean Temperature 60 °F 45 °F  
Max Temperature 76 °F 54 °F 83 °F (1883)
Min Temperature 43 °F 36 °F 20 °F (1950)
Degree Days  
Heating Degree Days 5 20  
Month to date heating degree days 276 313  
Since 1 July heating degree days 6560 6018  
Cooling Degree Days 0 0  
Month to date cooling degree days 0 0  
Year to date cooling degree days 0 0  
Growing Degree Days 10 (Base 50)    
Moisture  
Dew Point 50 °F    
Average Humidity 71    
Maximum Humidity 100    
Minimum Humidity 41    
Precipitation  
Precipitation 0.34 in 0.10 in 1.30 in (1903)
Month to date precipitation 2.45 1.48  
Year to date precipitation 11.78 10.02  
Snow  
Snow 0.00 in 0.10 in 1.70 in (1962)
Month to date snowfall 0.2 2.0  
Since 1 July snowfall 128.9 93.7  
Snow Depth 0.00 in    
Sea Level Pressure  
Sea Level Pressure 29.65 in    
Wind  
Wind Speed 15 mph (SW)    
Max Wind Speed 36 mph    
Max Gust Speed 44 mph    
Visibility 6 miles    
Events Fog , Rain    
T = Trace of Precipitation, MM = Missing Value Source: NWS Daily Summary

Daily Weather History Graph

Daily Weather History Graph

Search for Another Location

Airport or City:

Trip Planner

Search our weather history database for the weather conditions in past years. The results will help you decide how hot, cold, wet, or windy it might be!

Date:

Astronomy

Apr. 14, 2014 Rise Set
Actual Time 6:34 AM EDT 7:56 PM EDT
Civil Twilight 6:05 AM EDT 8:25 PM EDT
Nautical Twilight 5:30 AM EDT 9:01 PM EDT
Astronomical Twilight 4:52 AM EDT 9:38 PM EDT
Moon 7:32 PM EDT (4/14) 6:07 AM EDT (4/14)
Length of Visible Light 14h 20m
Length of Day
13h 21m
Full, 100% of the Moon is Illuminated
Apr 14
Full
Apr 15
Full
Apr 22
Last Quarter
Apr 29
New
May 6
First Quarter

Hourly Weather History & Observations

Time (EDT) Temp. Windchill Dew Point Humidity Pressure Visibility Wind Dir Wind Speed Gust Speed Precip Events Conditions
12:54 AM 60.1 °F - 52.0 °F 75% 29.75 in 10.0 mi SE 6.9 mph - N/A   Mostly Cloudy
1:54 AM 59.0 °F - 51.1 °F 75% 29.71 in 10.0 mi SE 9.2 mph - N/A   Mostly Cloudy
2:54 AM 61.0 °F - 48.9 °F 64% 29.69 in 10.0 mi SSE 9.2 mph - N/A   Mostly Cloudy
3:54 AM 63.0 °F - 46.9 °F 56% 29.67 in 10.0 mi South 8.1 mph - N/A   Mostly Cloudy
4:54 AM 69.1 °F - 46.0 °F 44% 29.65 in 10.0 mi SSW 15.0 mph 25.3 mph N/A   Mostly Cloudy
5:54 AM 69.1 °F - 46.9 °F 45% 29.65 in 10.0 mi South 15.0 mph - N/A   Mostly Cloudy
6:54 AM 69.1 °F - 48.0 °F 47% 29.64 in 10.0 mi South 17.3 mph - N/A   Overcast
7:54 AM 72.0 °F - 50.0 °F 46% 29.63 in 10.0 mi South 17.3 mph 24.2 mph N/A   Overcast
8:54 AM 73.0 °F - 51.1 °F 46% 29.61 in 10.0 mi SSW 20.7 mph 33.4 mph N/A   Overcast
9:54 AM 73.9 °F - 51.1 °F 45% 29.60 in 10.0 mi South 19.6 mph 34.5 mph N/A   Overcast
10:54 AM 75.0 °F - 50.0 °F 41% 29.59 in 10.0 mi SSW 26.5 mph 42.6 mph N/A   Overcast
11:54 AM 73.9 °F - 50.0 °F 43% 29.59 in 10.0 mi SSW 24.2 mph 36.8 mph N/A   Mostly Cloudy
12:54 PM 66.9 °F - 48.9 °F 52% 29.59 in 10.0 mi WSW 19.6 mph 40.3 mph 0.00 in Rain Light Rain
1:54 PM 63.0 °F - 54.0 °F 72% 29.60 in 10.0 mi WSW 19.6 mph 27.6 mph 0.00 in Rain Light Rain
2:54 PM 57.9 °F - 54.0 °F 87% 29.60 in 9.0 mi WSW 20.7 mph 32.2 mph 0.00 in Rain Light Rain
3:05 PM 57.0 °F - 54.0 °F 89% 29.63 in 5.0 mi SW 23.0 mph 33.4 mph 0.00 in Rain Rain
3:29 PM 54.0 °F - 52.0 °F 93% 29.62 in 5.0 mi SSW 15.0 mph 25.3 mph 0.03 in Rain Light Rain
3:54 PM 55.0 °F - 53.1 °F 93% 29.62 in 5.0 mi SW 11.5 mph - 0.06 in Rain Light Rain
4:54 PM 62.1 °F - 57.9 °F 86% 29.60 in 5.0 mi South 17.3 mph 24.2 mph 0.04 in Rain Light Rain
5:28 PM 57.0 °F - 54.0 °F 89% 29.62 in 6.0 mi WSW 17.3 mph 31.1 mph 0.00 in Rain Light Rain
5:54 PM 55.9 °F - 55.0 °F 97% 29.62 in 2.0 mi WSW 23.0 mph 28.8 mph 0.05 in Rain Heavy Rain
5:57 PM 55.9 °F - 55.0 °F 97% 29.63 in 1.5 mi WSW 15.0 mph 28.8 mph 0.01 in Rain Heavy Rain
5:59 PM 55.9 °F - 54.0 °F 93% 29.63 in 2.0 mi SW 17.3 mph 28.8 mph 0.03 in Rain Heavy Rain
6:12 PM 55.0 °F - 54.0 °F 96% 29.63 in 1.5 mi WSW 15.0 mph 25.3 mph 0.06 in Rain Rain
6:27 PM 55.0 °F - 54.0 °F 96% 29.64 in 2.5 mi WSW 15.0 mph 23.0 mph 0.07 in Rain Rain
6:43 PM 54.0 °F - 53.1 °F 97% 29.64 in 1.5 mi SW 12.7 mph 21.9 mph 0.12 in Rain Heavy Rain
6:49 PM 53.6 °F - 51.8 °F 94% 29.65 in 3.0 mi SW 15.0 mph - 0.13 in Rain Light Rain
6:54 PM 53.1 °F - 52.0 °F 96% 29.65 in 3.0 mi SW 12.7 mph - 0.13 in Rain Light Rain
7:13 PM 52.0 °F - 51.1 °F 97% 29.65 in 2.0 mi SSW 12.7 mph - 0.00 in Rain Light Rain
7:17 PM 52.0 °F - 51.1 °F 97% 29.65 in 1.0 mi SW 13.8 mph - 0.00 in Rain Light Rain
7:24 PM 50.0 °F - 48.9 °F 96% 29.66 in 0.5 mi SW 15.0 mph 24.2 mph 0.01 in Fog , Rain Light Rain
7:31 PM 50.0 °F - 48.9 °F 96% 29.66 in 0.2 mi SW 12.7 mph - 0.01 in Fog , Rain Light Rain
7:45 PM 52.0 °F - 51.1 °F 97% 29.65 in 1.0 mi SW 13.8 mph - 0.02 in Rain Light Rain
7:54 PM 52.0 °F - 51.1 °F 97% 29.66 in 1.0 mi SW 13.8 mph 20.7 mph 0.02 in Rain Light Rain
8:11 PM 52.0 °F - 51.1 °F 97% 29.65 in 1.0 mi SW 12.7 mph - 0.00 in Rain Light Rain
8:16 PM 52.0 °F - 51.1 °F 97% 29.65 in 2.0 mi SW 16.1 mph 20.7 mph 0.00 in Rain Light Rain
8:54 PM 51.1 °F - 50.0 °F 96% 29.66 in 2.5 mi SW 12.7 mph 23.0 mph 0.00 in Rain Light Rain
9:10 PM 50.0 °F - 48.9 °F 96% 29.67 in 3.0 mi WSW 15.0 mph - 0.00 in   Overcast
9:35 PM 48.0 °F - 48.0 °F 100% 29.69 in 2.0 mi WSW 10.4 mph - 0.00 in Rain Light Rain
9:54 PM 48.9 °F - 48.0 °F 97% 29.70 in 2.0 mi West 8.1 mph - 0.03 in Rain Light Rain
10:05 PM 48.9 °F - 46.9 °F 93% 29.70 in 3.0 mi WNW 5.8 mph - 0.00 in Rain Light Rain
10:13 PM 48.9 °F - 48.0 °F 97% 29.70 in 3.0 mi NW 8.1 mph - 0.00 in Rain Light Rain
10:47 PM 46.9 °F - 44.1 °F 90% 29.69 in 8.0 mi NNW 8.1 mph - 0.00 in Rain Light Rain
10:54 PM 46.0 °F 42.5 °F 43.0 °F 89% 29.68 in 8.0 mi NNW 6.9 mph - 0.00 in Rain Light Rain
11:54 PM 44.1 °F 40.1 °F 41.0 °F 89% 29.68 in 10.0 mi NNW 6.9 mph - 0.00 in   Overcast